Weather History for Oakland, CA

Change the Weather History Date:

Wednesday, September 3, 2014

  Actual Average Record
Temperature  
Mean Temperature 69 °F 65 °F  
Max Temperature 76 °F 75 °F 95 °F (1961)
Min Temperature 61 °F 55 °F 48 °F (2011)
Degree Days  
Heating Degree Days 0 2  
Month to date heating degree days 0 4  
Since 1 July heating degree days 25 144  
Cooling Degree Days 4 2  
Month to date cooling degree days 10 6  
Year to date cooling degree days 206 86  
Growing Degree Days 18 (Base 50)    
Moisture  
Dew Point 56 °F    
Average Humidity 69    
Maximum Humidity 84    
Minimum Humidity 53    
Precipitation  
Precipitation 0.00 in 0.01 in 0.00 in (2015)
Month to date precipitation 0.00 0.01  
Year to date precipitation 7.99 13.29  
Since 1 July precipitation 0.01 0.07  
Sea Level Pressure  
Sea Level Pressure 29.76 in    
Wind  
Wind Speed 8 mph (West)    
Max Wind Speed 21 mph    
Max Gust Speed 24 mph    
Visibility 10 miles    
Events      
T = Trace of Precipitation, MM = Missing Value Source: NWS Daily Summary

Daily Weather History Graph

Daily Weather History Graph

Search for Another Location

Airport:

Trip Planner

Search our weather history database for the weather conditions in past years. The results will help you decide how hot, cold, wet, or windy it might be!

Date:

Astronomy

Sep. 03, 2014 Rise Set
Actual Time 6:40 AM PDT 7:34 PM PDT
Civil Twilight 6:14 AM PDT 8:01 PM PDT
Nautical Twilight 5:42 AM PDT 8:33 PM PDT
Astronomical Twilight 5:09 AM PDT 9:05 PM PDT
Moon 3:18 PM PDT (9/3) 12:43 AM PDT (9/3)
Length of Visible Light 13h 47m
Length of Day
12h 54m
Waxing Gibbous, 65% of the Moon is Illuminated
Sep 3
Waxing Gibbous
Sep 8
Full
Sep 15
Last Quarter
Sep 23
New
Oct 1
First Quarter

Hourly Weather History & Observations

Time (PDT) Temp. Dew Point Humidity Pressure Visibility Wind Dir Wind Speed Gust Speed Precip Events Conditions
12:53 AM 64.0 °F 57.0 °F 78% 29.78 in 10.0 mi Calm Calm - N/A   Overcast
1:53 AM 64.0 °F 57.0 °F 78% 29.77 in 10.0 mi WSW 3.5 mph - N/A   Overcast
2:53 AM 64.0 °F 57.0 °F 78% 29.77 in 10.0 mi SW 4.6 mph - N/A   Overcast
3:53 AM 63.0 °F 55.9 °F 78% 29.76 in 10.0 mi West 4.6 mph - N/A   Overcast
4:53 AM 63.0 °F 55.9 °F 78% 29.76 in 10.0 mi West 5.8 mph - N/A   Overcast
5:53 AM 63.0 °F 55.9 °F 78% 29.76 in 10.0 mi West 5.8 mph - N/A   Overcast
6:53 AM 64.0 °F 55.9 °F 75% 29.78 in 10.0 mi Calm Calm - N/A   Overcast
7:53 AM 64.0 °F 55.9 °F 75% 29.79 in 10.0 mi Calm Calm - N/A   Overcast
8:53 AM 64.0 °F 55.9 °F 75% 29.80 in 10.0 mi SSE 4.6 mph - N/A   Overcast
9:53 AM 64.9 °F 57.0 °F 75% 29.81 in 10.0 mi SSW 3.5 mph - N/A   Overcast
10:32 AM 66.2 °F 55.4 °F 68% 29.81 in 10.0 mi West 3.5 mph - N/A   Overcast
10:53 AM 66.0 °F 55.9 °F 70% 29.81 in 10.0 mi WSW 5.8 mph - N/A   Mostly Cloudy
11:31 AM 68.0 °F 55.4 °F 64% 29.81 in 10.0 mi West 8.1 mph - N/A   Scattered Clouds
11:53 AM 69.1 °F 55.9 °F 63% 29.81 in 10.0 mi West 6.9 mph - N/A   Scattered Clouds
12:53 PM 69.1 °F 57.0 °F 65% 29.78 in 10.0 mi West 9.2 mph - N/A   Partly Cloudy
1:53 PM 73.0 °F 55.0 °F 53% 29.76 in 10.0 mi WNW 9.2 mph - N/A   Clear
2:53 PM 75.0 °F 57.0 °F 53% 29.74 in 10.0 mi WNW 11.5 mph - N/A   Partly Cloudy
3:53 PM 73.9 °F 57.0 °F 55% 29.72 in 10.0 mi WNW 16.1 mph - N/A   Partly Cloudy
4:53 PM 71.1 °F 57.0 °F 61% 29.72 in 10.0 mi WNW 18.4 mph - N/A   Partly Cloudy
5:53 PM 69.1 °F 57.0 °F 65% 29.72 in 10.0 mi WNW 17.3 mph 24.2 mph N/A   Partly Cloudy
6:53 PM 66.0 °F 57.0 °F 73% 29.72 in 10.0 mi WNW 15.0 mph - N/A   Partly Cloudy
7:53 PM 63.0 °F 55.9 °F 78% 29.72 in 10.0 mi WNW 12.7 mph - N/A   Partly Cloudy
8:53 PM 63.0 °F 57.0 °F 81% 29.73 in 10.0 mi NW 10.4 mph - N/A   Partly Cloudy
9:53 PM 62.1 °F 55.9 °F 80% 29.74 in 10.0 mi WNW 10.4 mph - N/A   Partly Cloudy
10:53 PM 62.1 °F 55.9 °F 80% 29.73 in 10.0 mi NNW 5.8 mph - N/A   Partly Cloudy
11:53 PM 62.1 °F 57.0 °F 84% 29.73 in 10.0 mi WNW 9.2 mph - N/A   Scattered Clouds